Location: Utrecht
(52.0907°N, 5.1214°E)
Time: 03:37:08
(UTC+02:00)

VELOX 1 - Pass Details

Date: 09 July 2022
Orbit: 624 x 639 km, 98.4° (Epoch: 07 August)

Event Time Altitude Azimuth Distance (km) Brightness Sun altitude
Rises 04:23:50 0° 114° (ESE) 2,937 ? -7.8°
Reaches altitude 10° 04:26:43 10° 93° (E) 2,035 ? -7.6°
Maximum altitude 04:29:27 16° 55° (NE) 1,658 ? -7.3°
Drops below altitude 10° 04:32:11 10° 17° (NNE) 2,045 ? -7.1°
Sets 04:35:06 0° 357° (N) 2,959 ? -6.8°
